Change the Weather History Date:

Friday, April 12, 2013

  Actual Average (KOMA) Record (KOMA)
Temperature  
Mean Temperature 36 °F 50 °F  
Max Temperature 42 °F 63 °F 86 °F (1916)
Min Temperature 32 °F 38 °F 18 °F (1957)
Degree Days  
Heating Degree Days 28 15  
Month to date heating degree days 203  
Since 1 July heating degree days 5792  
Cooling Degree Days 0 0  
Month to date cooling degree days 0  
Year to date cooling degree days 1  
Moisture  
Dew Point 29 °F    
Average Humidity 75    
Maximum Humidity 88    
Minimum Humidity 59    
Precipitation  
Precipitation 0.00 in 0.09 in 1.20 in (1945)
Month to date precipitation 1.03  
Year to date precipitation 4.59  
Snow  
Snow 0.00 in 0.00 in - ()
Month to date snowfall 0.6  
Since 1 July snowfall 26.0  
Snow Depth -    
Sea Level Pressure  
Sea Level Pressure 29.87 in    
Wind  
Wind Speed 13 mph (NW)    
Max Wind Speed 18 mph    
Max Gust Speed 25 mph    
Visibility 10 miles    
Events      
T = Trace of Precipitation, MM = Missing Value Source: NWS Daily Summary

Daily Weather History Graph

Daily Weather History Graph

Search for Another Location

Airport or City:

Trip Planner

Search our weather history database for the weather conditions in past years. The results will help you decide how hot, cold, wet, or windy it might be!

Date:

Astronomy

Apr. 12, 2013 Rise Set
Actual Time 6:49 AM CDT 8:01 PM CDT
Civil Twilight 6:20 AM CDT 8:30 PM CDT
Nautical Twilight 5:46 AM CDT 9:04 PM CDT
Astronomical Twilight 5:11 AM CDT 9:40 PM CDT
Moon 7:58 AM CDT (4/12) 10:34 PM CDT (4/12)
Length of Visible Light 14h 09m
Length of Day
13h 12m
Waxing Crescent, 5% of the Moon is Illuminated
Apr 12
Waxing Crescent
Apr 18
First Quarter
Apr 25
Full
May 2
Last Quarter
May 9
New

Hourly Weather History & Observations

Time (CDT) Temp. Windchill Dew Point Humidity Pressure Visibility Wind Dir Wind Speed Gust Speed Precip Events Conditions
12:15 AM 34.0 °F 24.2 °F 28.0 °F 79% 29.73 in 10.0 mi NW 15.0 mph 23.0 mph N/A   Overcast
12:35 AM 33.8 °F 25.3 °F 28.2 °F 80% 29.74 in 10.0 mi WNW 11.5 mph 19.6 mph N/A   Overcast
12:55 AM 33.8 °F 23.5 °F 28.0 °F 79% 29.74 in 10.0 mi WNW 16.1 mph 24.2 mph N/A   Overcast
1:15 AM 33.8 °F 23.2 °F 28.4 °F 81% 29.74 in 10.0 mi WNW 17.3 mph 20.7 mph N/A   Overcast
1:35 AM 33.8 °F 23.9 °F 28.4 °F 81% 29.74 in 10.0 mi WNW 15.0 mph - N/A   Overcast
1:55 AM 33.8 °F 23.9 °F 28.4 °F 81% 29.74 in 10.0 mi WNW 15.0 mph 21.9 mph N/A   Overcast
2:15 AM 33.8 °F 23.5 °F 28.4 °F 81% 29.74 in 10.0 mi WNW 16.1 mph 21.9 mph N/A   Overcast
2:35 AM 33.8 °F 24.8 °F 28.8 °F 82% 29.74 in 10.0 mi NW 12.7 mph 25.3 mph N/A   Overcast
2:55 AM 33.8 °F 23.5 °F 29.1 °F 83% 29.74 in 10.0 mi WNW 16.1 mph 25.3 mph N/A   Overcast
3:15 AM 33.8 °F 22.8 °F 29.3 °F 84% 29.73 in 10.0 mi WNW 18.4 mph 24.2 mph N/A   Overcast
3:35 AM 33.8 °F 24.3 °F 29.3 °F 84% 29.74 in 10.0 mi WNW 13.8 mph 20.7 mph N/A   Overcast
3:55 AM 33.8 °F 24.8 °F 29.8 °F 85% 29.74 in 10.0 mi NW 12.7 mph 18.4 mph N/A   Overcast
4:15 AM 33.8 °F 24.8 °F 30.0 °F 86% 29.74 in 10.0 mi NW 12.7 mph 16.1 mph N/A   Overcast
4:35 AM 33.8 °F 23.9 °F 30.2 °F 87% 29.75 in 10.0 mi NW 15.0 mph 18.4 mph N/A   Overcast
4:55 AM 34.0 °F 25.0 °F 30.2 °F 86% 29.76 in 10.0 mi NW 12.7 mph 18.4 mph N/A   Overcast
5:15 AM 34.0 °F 25.5 °F 30.2 °F 86% 29.76 in 10.0 mi NW 11.5 mph - N/A   Overcast
5:35 AM 34.2 °F 25.2 °F 30.6 °F 87% 29.76 in 10.0 mi NW 12.7 mph - N/A   Overcast
5:55 AM 34.2 °F 25.2 °F 30.6 °F 87% 29.77 in 10.0 mi WNW 12.7 mph 17.3 mph N/A   Overcast
6:15 AM 34.2 °F 25.7 °F 30.7 °F 87% 29.77 in 10.0 mi NW 11.5 mph 19.6 mph N/A   Overcast
6:35 AM 34.2 °F 24.4 °F 30.9 °F 88% 29.78 in 10.0 mi WNW 15.0 mph 19.6 mph N/A   Overcast
6:55 AM 34.2 °F 24.4 °F 30.9 °F 88% 29.79 in 10.0 mi NW 15.0 mph 20.7 mph N/A   Overcast
7:15 AM 34.2 °F 23.6 °F 30.9 °F 88% 29.80 in 10.0 mi WNW 17.3 mph 24.2 mph N/A   Overcast
7:35 AM 34.2 °F 24.4 °F 30.7 °F 87% 29.81 in 10.0 mi WNW 15.0 mph - N/A   Overcast
7:55 AM 34.0 °F 25.0 °F 30.6 °F 87% 29.82 in 10.0 mi WNW 12.7 mph - N/A   Overcast
8:15 AM 34.2 °F 24.8 °F 30.6 °F 87% 29.83 in 10.0 mi WNW 13.8 mph 17.3 mph N/A   Overcast
8:35 AM 34.2 °F 23.3 °F 30.2 °F 85% 29.84 in 10.0 mi NW 18.4 mph 23.0 mph N/A   Overcast
8:55 AM 34.5 °F 25.3 °F 29.8 °F 83% 29.85 in 10.0 mi NW 13.8 mph 23.0 mph N/A   Overcast
9:15 AM 34.7 °F 25.5 °F 30.0 °F 83% 29.86 in 10.0 mi NW 13.8 mph 21.9 mph N/A   Overcast
9:55 AM 35.6 °F 25.9 °F 30.2 °F 81% 29.87 in 10.0 mi NW 16.1 mph 23.0 mph N/A   Overcast
10:15 AM 35.6 °F 25.9 °F 30.0 °F 80% 29.88 in 10.0 mi WNW 16.1 mph 23.0 mph N/A   Overcast
10:35 AM 36.0 °F 26.7 °F 30.0 °F 79% 29.88 in 10.0 mi WNW 15.0 mph 21.9 mph N/A   Overcast
10:55 AM 36.1 °F 27.3 °F 29.3 °F 76% 29.89 in 10.0 mi NW 13.8 mph - N/A   Overcast
11:15 AM 37.0 °F 29.8 °F 29.5 °F 74% 29.89 in 10.0 mi NW 10.4 mph 17.3 mph N/A   Overcast
11:35 AM 36.7 °F 26.9 °F 28.9 °F 74% 29.89 in 10.0 mi NW 17.3 mph 20.7 mph N/A   Overcast
11:55 AM 37.2 °F 28.7 °F 29.7 °F 74% 29.90 in 10.0 mi WNW 13.8 mph 19.6 mph N/A   Overcast
12:15 PM 37.8 °F 28.6 °F 28.6 °F 69% 29.90 in 10.0 mi NW 16.1 mph 24.2 mph N/A   Overcast
12:35 PM 37.6 °F 29.6 °F 29.3 °F 72% 29.90 in 10.0 mi WNW 12.7 mph 20.7 mph N/A   Overcast
12:55 PM 37.9 °F 28.9 °F 28.4 °F 69% 29.91 in 10.0 mi WNW 16.1 mph 24.2 mph N/A   Overcast
1:15 PM 38.5 °F 29.6 °F 28.4 °F 67% 29.91 in 10.0 mi NW 16.1 mph 21.9 mph N/A   Overcast
1:35 PM 39.2 °F 32.5 °F 28.0 °F 64% 29.91 in 10.0 mi NW 10.4 mph 20.7 mph N/A   Overcast
1:55 PM 39.6 °F 32.1 °F 28.2 °F 64% 29.91 in 10.0 mi NW 12.7 mph 19.6 mph N/A   Overcast
2:15 PM 40.3 °F 33.0 °F 28.4 °F 63% 29.92 in 10.0 mi West 12.7 mph 20.7 mph N/A   Overcast
2:35 PM 40.6 °F 32.7 °F 28.8 °F 63% 29.92 in 10.0 mi WNW 15.0 mph - N/A   Overcast
2:55 PM 40.6 °F 33.0 °F 28.8 °F 63% 29.92 in 10.0 mi NW 13.8 mph 20.7 mph N/A   Overcast
3:15 PM 41.0 °F 32.2 °F 29.1 °F 63% 29.93 in 10.0 mi NW 18.4 mph 25.3 mph N/A   Overcast
3:35 PM 40.8 °F 32.3 °F 29.3 °F 64% 29.93 in 10.0 mi NW 17.3 mph 21.9 mph N/A   Overcast
3:55 PM 41.4 °F 34.0 °F 29.3 °F 62% 29.93 in 10.0 mi WNW 13.8 mph 19.6 mph N/A   Overcast
4:15 PM 41.4 °F 33.3 °F 30.0 °F 64% 29.93 in 10.0 mi WNW 16.1 mph 19.6 mph N/A   Overcast
4:35 PM 41.7 °F 34.8 °F 28.4 °F 59% 29.92 in 10.0 mi NW 12.7 mph 21.9 mph N/A   Overcast
4:55 PM 41.5 °F 33.8 °F 29.1 °F 61% 29.93 in 10.0 mi WNW 15.0 mph - N/A   Overcast
5:15 PM 41.4 °F 34.0 °F 29.1 °F 62% 29.94 in 10.0 mi WNW 13.8 mph 19.6 mph N/A   Overcast
5:35 PM 41.2 °F 32.4 °F 28.0 °F 60% 29.94 in 10.0 mi WNW 18.4 mph 24.2 mph N/A   Overcast
5:55 PM 41.4 °F 33.6 °F 29.5 °F 63% 29.94 in 10.0 mi WNW 15.0 mph 20.7 mph N/A   Overcast
6:15 PM 41.0 °F 34.3 °F 28.4 °F 61% 29.95 in 10.0 mi WNW 11.5 mph - N/A   Overcast
6:35 PM 41.0 °F 32.5 °F 28.6 °F 61% 29.95 in 10.0 mi WNW 17.3 mph 21.9 mph N/A   Overcast
6:55 PM 40.1 °F 32.7 °F 27.7 °F 61% 29.96 in 10.0 mi NW 12.7 mph 17.3 mph N/A   Overcast
7:15 PM 40.1 °F 32.4 °F 28.4 °F 63% 29.96 in 10.0 mi NW 13.8 mph - N/A   Overcast
7:35 PM 39.6 °F 32.5 °F 27.7 °F 62% 29.97 in 10.0 mi NW 11.5 mph 18.4 mph N/A   Scattered Clouds
7:55 PM 38.8 °F 33.2 °F 28.0 °F 65% 29.96 in 10.0 mi NW 8.1 mph - N/A   Mostly Cloudy
8:15 PM 38.1 °F 32.3 °F 27.5 °F 66% 29.96 in 10.0 mi WNW 8.1 mph 17.3 mph N/A   Scattered Clouds
8:35 PM 38.3 °F 32.5 °F 28.0 °F 67% 29.97 in 10.0 mi WNW 8.1 mph - N/A   Scattered Clouds
8:55 PM 37.9 °F 32.7 °F 28.2 °F 68% 29.97 in 10.0 mi NW 6.9 mph - N/A   Mostly Cloudy
9:15 PM 37.4 °F 32.1 °F 28.2 °F 69% 29.98 in 10.0 mi NW 6.9 mph - N/A   Scattered Clouds
9:35 PM 37.0 °F 34.5 °F 28.6 °F 71% 29.98 in 10.0 mi NNW 3.5 mph - N/A   Clear
9:55 PM 36.1 °F - 28.6 °F 74% 30.00 in 10.0 mi Calm Calm - N/A   Clear
10:15 PM 35.4 °F - 28.9 °F 77% 30.01 in 10.0 mi Calm Calm - N/A   Clear
10:35 PM 34.9 °F 30.8 °F 28.4 °F 77% 30.01 in 10.0 mi NW 4.6 mph - N/A   Clear
10:55 PM 33.8 °F - 28.4 °F 81% 30.01 in 10.0 mi Calm Calm - N/A   Clear
11:15 PM 33.6 °F - 28.0 °F 80% 30.01 in 10.0 mi Calm Calm - N/A   Clear
11:35 PM 32.9 °F 29.8 °F 27.9 °F 82% 30.01 in 10.0 mi WNW 3.5 mph - N/A   Clear
11:55 PM 32.9 °F - 28.2 °F 83% 30.02 in 10.0 mi Calm Calm - N/A   Clear